[[{"header":{"parameterUnit":"m.s-1","parameterCategory":1,"la1":30.2991,"la2":30.254,"lo1":-89.0895,"lo2":-89.0444,"dy":0.0017,"dx":0.0017,"nx":28,"ny":28,"refTime":"2025-06-04T21:00:00:Z","depth":0,"parameterNumber":2,"parameterNumberName":"U-component_of_WINDS"},"data":[0,0,0,0,0,0,0,0,0,0,0,0,0,0,0,0,0,0,0,0,0,0,0,0,0,0,0,0,0,0,0,0,0,0,0,0,0,0,0,0,0,0,0,0,0,0,0,0,0,0,0,0,0,0,0,0,0,0,-3.5982,-3.5982,0,-3.5946,-3.5945,-3.5945,-3.5791,-3.5788,-3.5784,-3.5781,-3.5748,-3.575,-3.5753,0,0,0,0,0,0,0,0,0,0,0,0,0,-3.5926,-3.5927,-3.5982,-3.5982,-3.5981,-3.5946,-3.5945,-3.5945,-3.5792,-3.5788,-3.5783,-3.5779,-3.5747,-3.575,-3.5753,0,0,0,0,0,0,0,0,0,0,0,0,0,-3.5926,-3.5928,-3.5982,-3.5901,-3.5893,-3.5946,-3.5945,-3.5945,-3.5793,-3.5788,-3.5782,-3.5777,-3.5746,-3.575,-3.5753,-3.5883,0,0,-3.5765,-3.5766,0,0,0,0,0,0,0,0,-3.5926,-3.5928,-3.5913,-3.5906,-3.5898,-3.5867,-3.5913,-3.5924,-3.5794,-3.5831,-3.5781,-3.5775,-3.5792,-3.5792,-3.5797,-3.5882,-3.588,-3.5765,-3.5767,-3.5769,-3.577,0,0,0,0,0,0,0,-3.5926,-3.5929,-3.5968,-3.5913,-3.5904,-3.5868,-3.5862,-3.5914,-3.5842,-3.5827,-3.5816,-3.5814,-3.5787,-3.5794,-3.5795,-3.588,-3.5765,-3.5768,-3.577,-3.5772,-3.6073,-3.6079,0,0,0,0,0,0,-3.5937,-3.593,-3.5969,-3.5967,-3.5899,-3.5873,-3.5867,-3.5883,-3.5841,-3.583,-3.5818,-3.5807,-3.579,-3.5791,-3.5793,-3.5944,-3.5769,-3.5772,-3.5774,-3.6067,-3.6074,-3.6081,0,0,0,0,0,0,-3.5936,-3.5942,-3.597,-3.5945,-3.5946,-3.588,-3.5899,-3.5885,-3.5891,-3.5834,-3.5821,-3.5838,-3.5786,-3.5788,-3.5863,-3.5941,-3.5774,-3.5777,-3.606,-3.6069,-3.6077,-3.6247,0,0,0,0,0,0,-3.5935,-3.5943,-3.599,-3.5947,-3.5948,-3.6039,-3.5904,-3.5888,-3.5897,-3.5882,-3.5849,-3.5839,-3.5782,-3.5858,-3.5866,-3.5943,-3.578,-3.6053,-3.6064,-3.6075,-3.6234,-3.626,-3.6283,0,0,0,0,0,-3.5934,-3.6039,-3.5993,-3.5998,-3.6005,-3.6043,-3.6044,-3.5975,-3.5904,-3.5952,-3.5916,-3.584,-3.5931,-3.5867,-3.5875,-3.5954,-3.6048,-3.6061,-3.6074,-3.6223,-3.6255,-3.6282,0,0,0,0,0,0,-3.6093,-3.6032,-3.598,-3.6074,-3.6065,-3.6017,-3.6075,-3.6011,-3.6023,-3.6008,-3.5923,-3.5917,-3.6005,-3.5987,-3.5916,-3.6079,-3.5977,-3.5992,-3.6088,-3.6118,-3.6142,-3.6144,-3.5783,0,0,0,0,0,-3.6139,-3.6174,-3.6119,-3.6208,-3.6206,-3.6142,-3.6156,-3.6104,-3.6092,-3.6087,-3.6057,-3.6049,-3.6076,-3.6096,-3.6118,-3.6231,-3.6223,-3.629,-3.6314,-3.6335,-3.6349,-3.641,-3.644,-3.6123,-3.6123,-3.6123,0,0,-3.6234,-3.6205,-3.6232,-3.6239,-3.6226,-3.6266,-3.614,-3.6186,-3.6216,-3.6095,-3.6163,-3.6141,-3.6127,-3.6223,-3.6263,-3.621,-3.6435,-3.6351,-3.6368,-3.6371,-3.6427,-3.6457,-3.6484,-3.6132,-3.6131,-3.6129,0,0,-3.6428,-3.6409,-3.6482,-3.6472,-3.6453,-3.6411,-3.6429,-3.6392,-3.6372,-3.6439,-3.635,-3.6385,-3.6433,-3.6427,-3.6431,-3.6628,-3.6559,-3.6637,-3.6765,-3.6825,-3.685,-3.6872,-3.6944,-3.697,-3.6652,-3.6652,-3.6652,0,-3.655,-3.6604,-3.6528,-3.6581,-3.6588,-3.648,-3.6554,-3.6549,-3.654,-3.6548,-3.6489,-3.6548,-3.6531,-3.6625,-3.6673,-3.6679,-3.6699,-3.664,-3.6853,-3.6874,-3.6893,-3.696,-3.6988,-3.6662,-3.6661,-3.666,-3.6659,0,-3.6755,-3.6795,-3.6856,-3.6849,-3.6863,-3.6927,-3.6862,-3.6886,-3.6834,-3.6799,-3.6871,-3.6847,-3.6863,-3.6881,-3.6831,-3.6969,-3.6937,-3.6867,-3.6762,-3.6934,-3.6996,-3.7021,-3.6676,-3.6672,-3.6669,-3.6667,0,0,-3.7046,-3.6998,-3.7022,-3.7018,-3.6992,-3.7022,-3.7083,-3.7098,-3.7121,-3.7119,-3.7169,-3.7214,-3.7149,-3.7154,-3.7102,-3.7156,-3.7316,-3.7079,-3.7077,-3.7125,-3.7469,-3.7523,-3.7554,-3.727,-3.7274,-3.7278,-3.7471,0,-3.7232,-3.733,-3.7265,-3.7375,-3.7412,-3.7313,-3.7366,-3.7357,-3.7327,-3.7356,-3.7322,-3.7356,-3.7267,-3.727,-3.7318,-3.7286,-3.7384,-3.7271,-3.7318,-3.732,-3.7324,-3.7586,-3.7641,-3.7824,-3.7494,-3.7498,-3.7501,0,-3.7461,-3.7469,-3.7583,-3.7551,-3.7565,-3.7613,-3.7623,-3.7652,-3.7641,-3.7615,-3.7623,-3.7559,-3.7618,-3.7516,-3.7599,-3.7524,-3.754,-3.7528,-3.7533,-3.7535,-3.7421,-3.7596,-3.788,-3.7909,-3.7539,-3.7536,-3.7533,0,-3.7663,-3.7703,-3.7776,-3.7777,-3.7742,-3.7779,-3.7766,-3.775,-3.7764,-3.7774,-3.7783,-3.7801,-3.781,-3.7827,-3.777,-3.7701,-3.7862,-3.7754,-3.7844,-3.7846,-3.7882,-3.7881,-3.8175,-3.7892,-3.7892,-3.7892,-3.7891,0,-3.7878,-3.7952,-3.7867,-3.7913,-3.7994,-3.792,-3.8003,-3.798,-3.7967,-3.8009,-3.7924,-3.7965,-3.7888,-3.7922,-3.7879,-3.7956,-3.796,-3.7943,-3.7931,-3.7951,-3.7954,-3.796,-3.7946,-3.7899,-3.7897,-3.7896,-3.7894,0,-3.8117,-3.8063,-3.8137,-3.8098,-3.8091,-3.8153,-3.812,-3.8162,-3.8127,-3.8181,-3.8189,-3.8135,-3.8171,-3.8117,-3.8147,-3.8118,-3.8225,-3.8193,-3.8228,-3.8219,-3.8313,-3.8305,-3.8621,-3.866,-3.8353,-3.8356,-3.8358,0,-3.8257,-3.8311,-3.8279,-3.83,-3.8293,-3.8328,-3.8342,-3.8273,-3.8292,-3.8286,-3.833,-3.8358,-3.8377,-3.8441,-3.8405,-3.8429,-3.8397,-3.8507,-3.84,-3.842,-3.8401,-3.8398,-3.8404,-3.8529,-3.8532,-3.8535,-3.8538,0,-3.8512,-3.8484,-3.8506,-3.8522,-3.8542,-3.855,-3.8553,-3.8576,-3.8504,-3.853,-3.8565,-3.8581,-3.8612,-3.8643,-3.8658,-3.8647,-3.8583,-3.8572,-3.8594,-3.8615,-3.8634,-3.8627,-3.8288,-3.8565,-3.8562,-3.856,-3.8559,-3.8557,-3.8706,-3.8751,-3.8736,-3.8766,-3.8761,-3.8767,-3.8805,-3.8775,-3.8803,-3.8822,-3.8781,-3.8828,-3.8819,-3.8832,-3.883,-3.8867,-3.8819,-3.8851,-3.8859,-3.8868,-3.8884,-3.8628,-3.8869,-3.8868,-3.8868,-3.8867,-3.8866,0,-3.8958,-3.8944,-3.8972,-3.8979,-3.9004,-3.8939,-3.894,-3.8965,-3.9007,-3.9004,-3.9025,-3.9068,-3.9098,-3.9067,-3.9092,-3.9128,-3.9099,-3.9137,-3.9134,-3.9133,-3.8924,-3.8903,-3.916,-3.916,-3.916,-3.916,-3.916,-3.916,-3.9092,-3.9165,-3.9136,-3.9207,-3.9193,-3.9237,-3.9243,-3.9249,-3.9246,-3.9298,-3.9322,-3.9301,-3.9288,-3.9312,-3.9338,-3.9328,-3.9342,-3.9391,-3.9371,-3.9176,-3.9147,-3.912,-3.9099,-3.9394,-3.9395,-3.9577,-3.9578,-3.958]},{"header":{"parameterUnit":"m.s-1","parameterCategory":1,"la1":30.2991,"la2":30.254,"lo1":-89.0895,"lo2":-89.0444,"dy":0.0017,"dx":0.0017,"nx":28,"ny":28,"refTime":"2025-06-04T21:00:00:Z","depth":0,"parameterNumber":3,"parameterNumberName":"V-component_of_WINDS"},"data":[0,0,0,0,0,0,0,0,0,0,0,0,0,0,0,0,0,0,0,0,0,0,0,0,0,0,0,0,0,0,0,0,0,0,0,0,0,0,0,0,0,0,0,0,0,0,0,0,0,0,0,0,0,0,0,0,0,0,1.7374,1.7374,0,1.7341,1.734,1.734,1.7393,1.7395,1.7397,1.7398,1.7359,1.7356,1.7354,0,0,0,0,0,0,0,0,0,0,0,0,0,1.7479,1.7477,1.7374,1.7374,1.7373,1.7341,1.734,1.734,1.7393,1.7395,1.7397,1.7399,1.736,1.7357,1.7353,0,0,0,0,0,0,0,0,0,0,0,0,0,1.7438,1.7476,1.7374,1.7396,1.7397,1.7341,1.734,1.734,1.7392,1.7395,1.7398,1.74,1.7361,1.7357,1.7353,1.7272,0,0,1.734,1.7339,0,0,0,0,0,0,0,0,1.7441,1.7434,1.7393,1.7394,1.7396,1.7374,1.7363,1.7317,1.7391,1.7394,1.7398,1.7401,1.7361,1.7357,1.7345,1.7271,1.7269,1.734,1.7338,1.7336,1.7335,0,0,0,0,0,0,0,1.7443,1.7436,1.7361,1.7392,1.7394,1.7406,1.7403,1.7355,1.7362,1.7394,1.7398,1.7393,1.7363,1.7349,1.7344,1.7268,1.734,1.7336,1.7334,1.7332,1.7125,1.7122,0,0,0,0,0,0,1.7444,1.7438,1.7362,1.736,1.7426,1.7402,1.7399,1.7378,1.7363,1.7364,1.7391,1.7396,1.7355,1.7349,1.7343,1.7247,1.7336,1.7332,1.733,1.7128,1.7125,1.7121,0,0,0,0,0,0,1.7446,1.7437,1.7363,1.74,1.7392,1.7397,1.7373,1.7376,1.7362,1.7361,1.7362,1.7375,1.7357,1.7349,1.729,1.7246,1.733,1.7326,1.7132,1.7127,1.7123,1.7053,0,0,0,0,0,0,1.7449,1.7437,1.7407,1.7399,1.7389,1.7311,1.7371,1.7373,1.7355,1.7361,1.7347,1.7347,1.7358,1.7296,1.7286,1.7242,1.7323,1.7136,1.713,1.7124,1.7059,1.7047,1.7036,0,0,0,0,0,1.7453,1.7388,1.7406,1.7396,1.7352,1.7308,1.7303,1.7318,1.7352,1.7321,1.7321,1.7347,1.7253,1.7289,1.7278,1.7232,1.7138,1.7131,1.7125,1.7064,1.7049,1.7036,0,0,0,0,0,0,1.7389,1.7387,1.7407,1.7338,1.7323,1.7317,1.7279,1.7302,1.7276,1.7282,1.7301,1.7298,1.7233,1.7228,1.7268,1.7154,1.7201,1.7192,1.7159,1.7144,1.7133,1.7134,1.732,0,0,0,0,0,1.7368,1.7333,1.7333,1.7272,1.7264,1.7273,1.7254,1.7268,1.7253,1.7246,1.7241,1.7224,1.7191,1.7168,1.7137,1.706,1.7056,1.7023,1.7012,1.7002,1.6993,1.695,1.6935,1.7099,1.7099,1.7099,0,0,1.7321,1.7316,1.7293,1.7259,1.725,1.7212,1.7267,1.7225,1.7197,1.7239,1.7182,1.7179,1.7161,1.7092,1.7061,1.7085,1.6947,1.6994,1.6986,1.6982,1.6942,1.6926,1.6912,1.7094,1.7095,1.7096,0,0,1.7218,1.7212,1.716,1.715,1.7135,1.7141,1.7129,1.712,1.7119,1.7064,1.7095,1.7061,1.7004,1.6989,1.6974,1.6868,1.6891,1.6858,1.6795,1.6754,1.6741,1.6729,1.6689,1.6674,1.6849,1.6849,1.6849,0,1.7162,1.7108,1.713,1.7086,1.7069,1.7109,1.7055,1.7044,1.7019,1.7006,1.7034,1.6963,1.6953,1.6881,1.6855,1.6843,1.6828,1.6857,1.6741,1.673,1.6719,1.6681,1.6666,1.6845,1.6845,1.6846,1.6846,0,1.7039,1.7001,1.6961,1.6938,1.6917,1.6869,1.6882,1.6858,1.6875,1.6878,1.682,1.6811,1.6779,1.6764,1.6778,1.6693,1.6708,1.6738,1.6786,1.6699,1.6663,1.6649,1.6839,1.684,1.6841,1.6842,0,0,1.6891,1.6882,1.6867,1.6856,1.6844,1.6814,1.6768,1.6738,1.6717,1.6699,1.6659,1.661,1.6638,1.6622,1.6636,1.6599,1.6513,1.6634,1.6634,1.6609,1.6416,1.6391,1.6374,1.653,1.6528,1.6525,1.6417,0,1.6786,1.6707,1.6726,1.6646,1.6611,1.6649,1.6608,1.6595,1.6597,1.6567,1.6569,1.6534,1.6575,1.6565,1.6531,1.6531,1.6474,1.6539,1.649,1.6488,1.649,1.6356,1.6329,1.6227,1.6403,1.6401,1.6399,0,1.6652,1.6631,1.6548,1.6542,1.6528,1.6491,1.6465,1.6436,1.6422,1.6427,1.6409,1.643,1.6383,1.6434,1.6368,1.6411,1.6393,1.639,1.6387,1.638,1.6436,1.6342,1.6195,1.6178,1.6378,1.638,1.6381,0,1.6549,1.65,1.6444,1.6435,1.6426,1.6399,1.6394,1.6384,1.6365,1.6342,1.633,1.6302,1.6285,1.6263,1.6275,1.6312,1.6206,1.6258,1.6206,1.6205,1.6178,1.6179,1.6023,1.6172,1.6172,1.6173,1.6173,0,1.6428,1.6376,1.6398,1.6363,1.6305,1.6328,1.6269,1.6269,1.6259,1.6224,1.6256,1.6221,1.6242,1.6209,1.6219,1.6161,1.6154,1.6155,1.6157,1.615,1.6149,1.6135,1.6142,1.6169,1.6169,1.617,1.6171,0,1.6302,1.6315,1.6256,1.6254,1.6253,1.6209,1.6207,1.6174,1.618,1.6135,1.6126,1.6134,1.6097,1.6109,1.6069,1.6076,1.6002,1.6015,1.6006,1.6008,1.5954,1.5958,1.578,1.5757,1.5924,1.5922,1.5921,0,1.6222,1.6183,1.6177,1.6156,1.6149,1.6116,1.6097,1.6119,1.6097,1.608,1.6048,1.6015,1.5988,1.5928,1.5929,1.5899,1.591,1.585,1.5905,1.5898,1.5905,1.5906,1.5901,1.5837,1.5835,1.5834,1.5833,0,1.6078,1.6087,1.606,1.6034,1.6012,1.5992,1.5976,1.5957,1.5977,1.5952,1.5915,1.5895,1.5856,1.5821,1.5794,1.5787,1.5812,1.5816,1.5802,1.5792,1.5787,1.5786,1.5973,1.5819,1.582,1.5821,1.5822,1.5823,1.5971,1.5937,1.5928,1.5896,1.5887,1.5871,1.5839,1.5842,1.5813,1.5783,1.5798,1.5755,1.5742,1.5708,1.5699,1.5665,1.5687,1.5667,1.5661,1.5655,1.5647,1.5796,1.566,1.5661,1.5661,1.5661,1.5662,0,1.5826,1.5823,1.5794,1.577,1.5745,1.5774,1.5758,1.5734,1.5696,1.5684,1.5658,1.5616,1.5583,1.5583,1.5552,1.5525,1.5535,1.5516,1.5516,1.5514,1.563,1.5644,1.5508,1.5508,1.5508,1.5508,1.5508,1.5508,1.5748,1.5692,1.57,1.5639,1.5636,1.5596,1.5584,1.5569,1.5558,1.551,1.5484,1.5485,1.5477,1.5446,1.5417,1.5418,1.5403,1.5378,1.5383,1.5491,1.5506,1.552,1.5533,1.5376,1.5376,1.527,1.5269,1.5268]}]]